Regional Weather Roundup
Issued by NWS

Home | Current Version | Previous Version | Text Only | Print | Product List | Glossary Off
Versions: 1 2 3 4 5 6 7 8 9 10 11 12 13 14 15 16 17 18 19 20 21 22 23 24 25 26 27 28 29 30 31 32 33 34 35 36 37 38 39 40 41 42 43 44 45 46 47 48 49 50

000
ASUS43 KLOT 300021
RWRIL

ILLINOIS REGIONAL WEATHER ROUNDUP
NATIONAL WEATHER SERVICE CHICAGO/ROMEOVILLE IL
700 PM CDT SUN MAR 29 2015

NOTE: "FAIR" INDICATES FEW OR NO CLOUDS BELOW 12,000 FEET WITH NO
SIGNIFICANT WEATHER AND/OR OBSTRUCTIONS TO VISIBILITY.

* THESE STATIONS ARE NOT UNDER NWS QUALITY CONTROL. THEY ALSO MAY NOT
  REPORT WEATHER SUCH AS PRECIPITATION OR FOG.

ILZ001-002-007-009-015-016-024-300100-
NORTHWEST ILLINOIS

CITY           SKY/WX    TMP DP  RH WIND       PRES   REMARKS
MOLINE         CLEAR     54  36  50 NW20G30   29.87R
6HR MIN TEMP:  43; 6HR MAX TEMP:  58;

STERLING*      PTCLDY    50  39  66 N15G24    29.86R
SAVANNA*       CLEAR     50  36  59 NW12      29.85R
$$

ILZ003-004-008-010-011-017-018-300100-
NORTH CENTRAL ILLINOIS

CITY           SKY/WX    TMP DP  RH WIND       PRES   REMARKS
ROCKFORD       CLOUDY    46  35  65 NW22G32   29.84R
6HR MIN TEMP:  34; 6HR MAX TEMP:  50; 6HR PCP: TRACE;

FREEPORT*      CLOUDY    44  34  67 NW17G25   29.87R
ROCHELLE*      MOCLDY    47  38  72 NW20G26   29.83R
DE KALB*       CLOUDY    45  39  79 NW20G29   29.81R
PERU*          CLOUDY    53  40  62 W20G28    29.82R
$$

ILZ005-006-012>014-019>023-300100-
NORTHEAST ILLINOIS

CITY           SKY/WX    TMP DP  RH WIND       PRES   REMARKS
CHICAGO-OHARE  LGT RAIN  47  35  63 SW14G24   29.75R
6HR MIN TEMP:  34; 6HR MAX TEMP:  47; 6HR PCP: TRACE;

CHICAGO-MIDWAY CLOUDY    49  35  58 SW17G29   29.76F
6HR MIN TEMP:  36; 6HR MAX TEMP:  49; 6HR PCP:  0.01;

AURORA         CLOUDY    48  35  60 W16G25    29.78R
6HR MIN TEMP:  35; 6HR MAX TEMP:  48;

LANSING*       CLOUDY    46  33  60 SW13G24   29.79F
JOLIET*        CLOUDY    50  37  62 SW9       29.79S
WAUKEGAN       CLOUDY    45  39  79 W12G21    29.75R
6HR MIN TEMP:  34; 6HR MAX TEMP:  45; 6HR PCP: TRACE;

DUPAGE AIRPORT LGT RAIN  47  35  63 SW17      29.77R
6HR MIN TEMP:  34; 6HR MAX TEMP:  47; 6HR PCP: TRACE;

KANKAKEE*      CLOUDY    47  38  72 SW15G22   29.83S
WHEELING       CLOUDY    46  36  68 W13       29.79R
6HR MIN TEMP:  34; 6HR MAX TEMP:  47; 6HR PCP: TRACE;

MORRIS*        CLOUDY    50  37  62 SW15G21   29.79S
ROMEOVILLE*    CLOUDY    47  36  64 SW18      29.77F
NORTHERLY ISL    N/A     48  33  56 SW9         N/A
$$

LMZ740>746-300100-
SOUTHERN LAKE MICHIGAN

STATION/POSITION SKY/WX   TEMP    WIND        PRES    VSBY  WAVE
                          AIR SEA DIR/SP/G                  HT/PER
                          (F)     (DEG/KT/KT) (MB)    (MI)  (FT/S)
HARRISON CRIB              48     220/ 22/ 31   N/A
BURNHAM HARBOR             48     240/  6/ 17   N/A
CALUMET HARBOR             47     200/ 15/ 22 1006.9F
BURNS HARBOR               45     210/ 20     1009.1F
MICHIGAN CITY              45     170/ 17/ 23   N/A
$$

ILZ025>027-034>036-040-047-049-050-058-095>099-300100-
WEST-CENTRAL ILLINOIS

CITY           SKY/WX    TMP DP  RH WIND       PRES   REMARKS
QUINCY         CLOUDY    58  41  53 W9        29.93R
GALESBURG*     CLEAR     54  41  61 W13G20    29.88R
MACOMB*        MOCLDY    56  43  62 W17       29.92R
JACKSONVILLE*  CLOUDY    56  41  57 SW8       29.92R
PITTSFIELD*    CLOUDY    56  41  56 SW7       29.94R
$$

ILZ028>032-037-038-041>044-048-051>054-059>061-300100-
CENTRAL ILLINOIS

CITY           SKY/WX    TMP DP  RH WIND       PRES   REMARKS
PONTIAC        CLOUDY    52  40  64 SW13      29.84S
BLOOMINGTON    CLOUDY    52  39  61 SW15      29.88R
DECATUR        MOCLDY    51  41  68 SW13      29.92R
PEORIA         CLOUDY    56  40  55 W14       29.87R
6HR MIN TEMP:  41; 6HR MAX TEMP:  58;

LACON*         CLOUDY    54  39  58 SW13      29.84R
LINCOLN*       CLOUDY    55  40  56 SW6       29.89R
SPRINGFIELD    CLOUDY    55  40  56 SW13      29.92R
6HR MIN TEMP:  46; 6HR MAX TEMP:  58; 6HR PCP: TRACE;

TAYLORVILLE    MOCLDY    50  41  71 SW9       29.93S
$$

ILZ033-039-045-046-055>057-062-063-300100-
EAST-CENTRAL ILLINOIS

CITY           SKY/WX    TMP DP  RH WIND       PRES   REMARKS
CHAMPAIGN      MOCLDY    48  40  73 SW13      29.91R
DANVILLE*      MOCLDY    43  38  81 SW12      29.87F
RANTOUL*       PTCLDY    49  41  72 SW16      29.89R
MATTOON        MOCLDY    49  41  74 SW10      29.93R
PARIS*         CLOUDY    45  40  84 SW8       29.93S
$$

ILZ079-100>102-300100-
SOUTHWEST ILLINOIS

CITY           SKY/WX    TMP DP  RH WIND       PRES   REMARKS
ALTON          PTCLDY    54  37  54 S9        29.97
BELLEVILLE     CLOUDY    55  46  73 VRB2      29.96R
CAHOKIA*       CLOUDY    57  43  59 W10       29.98R
SPARTA*        CLOUDY    52  42  69 SW3       30.01R
$$

ILZ064>066-069>071-074>076-080>082-084>086-088>090-092>094-300100-
SOUTH-CENTRAL ILLINOIS

CITY           SKY/WX    TMP DP  RH WIND       PRES   REMARKS
CARBONDALE     CLOUDY    54  42  64 S12       29.97S
6HR MIN TEMP:  53; 6HR MAX TEMP:  59;

CAIRO*         MOCLDY    57  48  70 SW9       30.03R
EFFINGHAM*     CLOUDY    50  40  69 S8        29.97R
MARION         CLOUDY    55  43  62 SW10G17   29.99F
MT. VERNON     CLOUDY    52  39  62 SW12      30.00R
CENTRALIA*     LGT RAIN  51  40  68 SW9       29.98R
SALEM*         CLOUDY    52  43  70 SW12      29.98R
METROPOLIS*    PTCLDY    56  45  64 SW7       30.01S
$$

ILZ067-068-072-073-078-083-087-091-300100-
SOUTHEAST ILLINOIS

CITY           SKY/WX    TMP DP  RH WIND       PRES   REMARKS
LAWRENCEVILLE  LGT RAIN  51  43  74 SW10      29.94F
FLORA*         CLOUDY    51  42  71 SW10      29.99R
FAIRFIELD*     CLOUDY    52  42  69 SW10      29.97R
HARRISBURG*    CLOUDY    55  41  60 SW12G17   30.00R
ROBINSON*      CLOUDY    47  43  87 SW6       29.97R
CARMI*         CLOUDY    53  38  56 S13       29.93F
$$

ABBREVIATIONS USED IN REMARKS
   TC - TEMPERATURE IN CELSIUS
  WCI - WIND CHILL INDEX
   HX - HEAT INDEX
  VSB - VISIBILITY
$$



USA.gov is the U.S. government's official web portal to all federal, state and local government web resources and services.